When you browse on this site, cookies collect data to enhance your experience and personalize the content and advertising you see.
Visit our Privacy Policy to learn more. By continuing to use the site, you agree to this use of cookies and data.
  • In Spain
  • List of Countries
  • For 7 days
  • Water Temperature
  • Satellite Maps
  • Weather Map
  • Weather Widgets
  • user-avatar
    Login

    Hourly Weather Oran

    Today, 16 January, Wednesday

    Time Temperature Precipitation Wind Pressure Humidity
    00:00 +12°C° 0 mm 2 mps 754 mmHg 78%
    01:00 +12°C° 0 mm 2 mps 754 mmHg 78%
    02:00 +10°C° 0 mm 2 mps 754 mmHg 77%
    03:00 +10°C° 0 mm 2 mps 754 mmHg 77%
    04:00 +10°C° 0 mm 2 mps 753 mmHg 76%
    05:00 +10°C° 0 mm 2 mps 753 mmHg 75%
    06:00 +10°C° 0 mm 3 mps 753 mmHg 74%
    07:00 +11°C° 0 mm 3 mps 753 mmHg 67%
    08:00 +12°C° 0 mm 3 mps 754 mmHg 60%
    09:00 +13°C° 0 mm 3 mps 754 mmHg 53%
    10:00 +14°C° 0 mm 4 mps 754 mmHg 53%
    11:00 +15°C° 0 mm 4 mps 753 mmHg 53%
    12:00 +16°C° 0 mm 5 mps 753 mmHg 53%
    13:00 +16°C° 0.1 mm 5 mps 753 mmHg 55%
    14:00 +16°C° 0.1 mm 5 mps 752 mmHg 58%
    15:00 +16°C° 0.1 mm 5 mps 752 mmHg 61%
    16:00 +15°C° 0 mm 4 mps 752 mmHg 68%
    17:00 +14°C° 0 mm 3 mps 752 mmHg 75%
    18:00 +13°C° 0 mm 3 mps 752 mmHg 82%
    19:00 +12°C° 0 mm 3 mps 752 mmHg 83%
    20:00 +12°C° 0 mm 3 mps 753 mmHg 85%
    21:00 +12°C° 0 mm 3 mps 753 mmHg 86%
    22:00 +11°C° 0.1 mm 3 mps 753 mmHg 86%
    23:00 +11°C° 0.1 mm 3 mps 753 mmHg 85%

    Tomorrow, 17 January, Thursday

    Time Temperature Precipitation Wind Pressure Humidity
    00:00 +11°C° 0.1 mm 4 mps 753 mmHg 85%
    01:00 +11°C° 0 mm 4 mps 752 mmHg 85%
    02:00 +11°C° 0 mm 3 mps 752 mmHg 84%
    03:00 +10°C° 0 mm 3 mps 752 mmHg 84%
    04:00 +10°C° 0 mm 3 mps 752 mmHg 84%
    05:00 +10°C° 0 mm 3 mps 752 mmHg 84%
    06:00 +10°C° 0 mm 3 mps 752 mmHg 83%
    07:00 +11°C° 0.1 mm 3 mps 752 mmHg 78%
    08:00 +12°C° 0.1 mm 3 mps 752 mmHg 72%
    09:00 +13°C° 0.1 mm 3 mps 753 mmHg 67%
    10:00 +14°C° 0 mm 3 mps 753 mmHg 61%
    11:00 +16°C° 0 mm 3 mps 753 mmHg 55%
    12:00 +17°C° 0 mm 4 mps 752 mmHg 50%
    13:00 +17°C° 0 mm 4 mps 752 mmHg 49%
    14:00 +17°C° 0 mm 4 mps 752 mmHg 49%
    15:00 +16°C° 0 mm 5 mps 751 mmHg 48%
    16:00 +15°C° 0 mm 4 mps 752 mmHg 55%
    17:00 +14°C° 0 mm 4 mps 752 mmHg 61%
    18:00 +13°C° 0 mm 3 mps 752 mmHg 67%
    19:00 +12°C° 0.1 mm 3 mps 753 mmHg 70%
    20:00 +11°C° 0.1 mm 3 mps 753 mmHg 73%
    21:00 +12°C° 0.1 mm 2 mps 753 mmHg 76%
    22:00 +12°C° 0 mm 2 mps 753 mmHg 76%
    23:00 +12°C° 0 mm 2 mps 753 mmHg 76%

    Day after tomorrow, 18 January, Friday

    Time Temperature Precipitation Wind Pressure Humidity
    00:00 +10°C° 0 mm 2 mps 753 mmHg 75%
    01:00 +10°C° 0 mm 2 mps 753 mmHg 76%
    02:00 +10°C° 0 mm 2 mps 753 mmHg 76%
    03:00 +10°C° 0 mm 2 mps 753 mmHg 76%
    04:00 +10°C° 0 mm 2 mps 753 mmHg 76%
    05:00 +10°C° 0 mm 2 mps 753 mmHg 76%
    06:00 +9°C° 0 mm 2 mps 753 mmHg 75%
    07:00 +12°C° 0 mm 2 mps 753 mmHg 70%
    08:00 +12°C° 0 mm 3 mps 754 mmHg 64%
    09:00 +13°C° 0 mm 3 mps 754 mmHg 58%
    10:00 +14°C° 0 mm 3 mps 754 mmHg 55%
    11:00 +16°C° 0 mm 3 mps 754 mmHg 53%
    12:00 +17°C° 0 mm 3 mps 754 mmHg 50%
    13:00 +17°C° 0 mm 4 mps 753 mmHg 51%
    14:00 +17°C° 0 mm 4 mps 753 mmHg 52%
    15:00 +16°C° 0 mm 5 mps 752 mmHg 52%
    16:00 +15°C° 0.2 mm 4 mps 753 mmHg 57%
    17:00 +14°C° 0.2 mm 4 mps 753 mmHg 62%
    18:00 +13°C° 0.2 mm 4 mps 753 mmHg 67%
    19:00 +13°C° 0.2 mm 4 mps 753 mmHg 69%
    20:00 +13°C° 0.2 mm 4 mps 754 mmHg 70%
    21:00 +13°C° 0.2 mm 4 mps 754 mmHg 72%
    22:00 +12°C° 0.2 mm 4 mps 754 mmHg 74%
    23:00 +12°C° 0.2 mm 5 mps 754 mmHg 75%

    19 January, Saturday

    Time Temperature Precipitation Wind Pressure Humidity
    00:00 +12°C° 0.2 mm 5 mps 754 mmHg 77%
    01:00 +12°C° 0.1 mm 5 mps 754 mmHg 77%
    02:00 +10°C° 0.1 mm 5 mps 754 mmHg 77%
    03:00 +10°C° 0.1 mm 5 mps 754 mmHg 78%
    04:00 +10°C° 0.3 mm 6 mps 754 mmHg 78%
    05:00 +10°C° 0.3 mm 6 mps 754 mmHg 78%
    06:00 +10°C° 0.3 mm 6 mps 753 mmHg 78%
    07:00 +11°C° 0.2 mm 7 mps 754 mmHg 76%
    08:00 +12°C° 0.2 mm 8 mps 754 mmHg 73%
    09:00 +12°C° 0.2 mm 8 mps 754 mmHg 70%
    10:00 +13°C° 0.3 mm 9 mps 754 mmHg 69%
    11:00 +13°C° 0.3 mm 9 mps 754 mmHg 68%
    12:00 +13°C° 0.3 mm 10 mps 754 mmHg 67%
    13:00 +13°C° 0.1 mm 10 mps 754 mmHg 65%
    14:00 +14°C° 0.1 mm 10 mps 753 mmHg 64%
    15:00 +14°C° 0.1 mm 11 mps 753 mmHg 62%
    16:00 +13°C° 0 mm 10 mps 753 mmHg 66%
    17:00 +13°C° 0 mm 9 mps 753 mmHg 69%
    18:00 +12°C° 0 mm 9 mps 753 mmHg 73%
    19:00 +12°C° 0 mm 9 mps 753 mmHg 74%
    20:00 +12°C° 0 mm 8 mps 753 mmHg 74%
    21:00 +12°C° 0 mm 8 mps 753 mmHg 75%
    22:00 +12°C° 0 mm 7 mps 752 mmHg 71%
    23:00 +11°C° 0 mm 6 mps 752 mmHg 66%

    20 January, Sunday

    Time Temperature Precipitation Wind Pressure Humidity
    00:00 +11°C° 0 mm 6 mps 751 mmHg 62%
    01:00 +11°C° 0.2 mm 6 mps 751 mmHg 64%
    02:00 +11°C° 0.2 mm 6 mps 750 mmHg 66%
    03:00 +11°C° 0.2 mm 7 mps 750 mmHg 68%
    04:00 +11°C° 0.6 mm 7 mps 750 mmHg 72%
    05:00 +11°C° 0.6 mm 7 mps 749 mmHg 76%
    06:00 +11°C° 0.6 mm 8 mps 749 mmHg 81%
    07:00 +12°C° 0 mm 9 mps 749 mmHg 78%
    08:00 +12°C° 0 mm 10 mps 750 mmHg 75%
    09:00 +13°C° 0 mm 11 mps 750 mmHg 72%
    10:00 +13°C° 0.8 mm 11 mps 750 mmHg 72%
    11:00 +14°C° 0.8 mm 12 mps 750 mmHg 73%
    12:00 +14°C° 0.8 mm 13 mps 750 mmHg 73%
    13:00 +14°C° 1.3 mm 11 mps 750 mmHg 72%
    14:00 +14°C° 1.3 mm 10 mps 750 mmHg 71%
    15:00 +15°C° 1.3 mm 9 mps 750 mmHg 70%
    16:00 +14°C° 0.9 mm 7 mps 750 mmHg 73%
    17:00 +14°C° 0.9 mm 5 mps 751 mmHg 76%
    18:00 +13°C° 0.9 mm 4 mps 752 mmHg 80%
    19:00 +13°C° 0.5 mm 4 mps 752 mmHg 79%
    20:00 +13°C° 0.5 mm 4 mps 753 mmHg 79%
    21:00 +13°C° 0.5 mm 4 mps 753 mmHg 79%
    22:00 +13°C° 0.1 mm 4 mps 753 mmHg 77%
    23:00 +13°C° 0.1 mm 4 mps 754 mmHg 75%

    21 January, Monday

    Time Temperature Precipitation Wind Pressure Humidity
    00:00 +13°C° 0.1 mm 4 mps 754 mmHg 73%
    01:00 +13°C° 0 mm 4 mps 754 mmHg 72%
    02:00 +13°C° 0 mm 4 mps 754 mmHg 71%
    03:00 +13°C° 0 mm 4 mps 754 mmHg 69%
    04:00 +12°C° 0 mm 3 mps 754 mmHg 70%
    05:00 +12°C° 0 mm 3 mps 754 mmHg 71%
    06:00 +12°C° 0 mm 3 mps 754 mmHg 73%
    07:00 +12°C° 0 mm 3 mps 754 mmHg 71%
    08:00 +12°C° 0 mm 3 mps 754 mmHg 69%
    09:00 +14°C° 0 mm 2 mps 755 mmHg 67%
    10:00 +13°C° 0 mm 3 mps 755 mmHg 63%
    11:00 +14°C° 0 mm 3 mps 755 mmHg 58%
    12:00 +14°C° 0 mm 3 mps 755 mmHg 54%
    13:00 +14°C° 0.1 mm 3 mps 754 mmHg 55%
    14:00 +14°C° 0.1 mm 3 mps 754 mmHg 56%
    15:00 +13°C° 0.1 mm 3 mps 754 mmHg 57%
    16:00 +13°C° 0.1 mm 3 mps 754 mmHg 63%
    17:00 +12°C° 0.1 mm 3 mps 754 mmHg 69%
    18:00 +11°C° 0.1 mm 3 mps 755 mmHg 75%
    19:00 +11°C° 0 mm 3 mps 755 mmHg 76%
    20:00 +11°C° 0 mm 3 mps 755 mmHg 77%
    21:00 +11°C° 0 mm 4 mps 755 mmHg 79%
    22:00 +11°C° 0.2 mm 3 mps 755 mmHg 78%
    23:00 +10°C° 0.2 mm 2 mps 755 mmHg 77%
    Show more